[[{"header":{"parameterUnit":"m.s-1","parameterCategory":1,"la1":30.2992,"la2":30.254,"lo1":-89.0895,"lo2":-89.0443,"dy":0.0025,"dx":0.0025,"nx":19,"ny":19,"refTime":"2026-05-10T09:00:00:Z","depth":0,"parameterNumber":2,"parameterNumberName":"U-component_of_WINDS"},"data":[0,0,0,-1.7202,-1.7202,-1.7195,-1.7195,-1.7205,-1.7206,0,0,0,0,0,0,0,0,0,0,0,-1.7214,-1.7214,-1.7202,-1.7202,-1.7195,-1.7195,-1.7205,-1.7206,0,0,0,0,0,0,0,0,0,0,0,-1.7214,-1.7214,-1.7215,-1.7202,-1.7195,-1.7195,-1.7205,-1.7204,0,0,0,0,0,0,0,0,0,0,-1.7207,-1.7228,-1.7214,-1.7215,-1.7202,-1.7195,-1.7195,-1.7204,-1.7204,-1.7216,0,-1.7228,0,-1.7217,-1.7207,-1.7207,0,0,0,-1.7195,-1.7227,-1.7217,-1.7215,-1.7202,-1.7196,-1.7196,-1.7204,-1.7204,-1.7217,-1.7228,-1.7228,-1.7217,-1.7207,-1.7208,-1.7298,-1.7299,0,0,-1.7195,-1.7218,-1.7216,-1.7217,-1.7218,-1.7197,-1.7196,-1.7204,-1.7218,-1.7228,-1.7228,-1.7217,-1.7208,-1.7208,-1.7298,-1.7298,0,0,0,-1.7201,-1.7219,-1.7207,-1.7217,-1.7215,-1.7197,-1.7196,-1.7218,-1.7212,-1.7228,-1.7217,-1.7208,-1.7208,-1.7297,-1.7298,-1.7359,0,0,0,-1.7201,-1.7222,-1.7208,-1.7222,-1.7215,-1.7216,-1.721,-1.7211,-1.7211,-1.7217,-1.7208,-1.7208,-1.7296,-1.7297,-1.7355,-1.7384,0,0,0,-1.7211,-1.7223,-1.7226,-1.7223,-1.7221,-1.7215,-1.721,-1.7211,-1.7206,-1.7207,-1.7208,-1.7295,-1.7297,-1.7352,-1.7379,-1.7416,0,0,0,-1.7228,-1.7279,-1.7227,-1.7279,-1.7221,-1.7252,-1.7209,-1.7231,-1.724,-1.7208,-1.7296,-1.7298,-1.7351,-1.7375,-1.7413,-1.7452,-1.747,0,0,-1.7305,-1.7289,-1.7318,-1.7271,-1.7317,-1.7251,-1.7306,-1.7293,-1.7272,-1.7291,-1.7293,-1.7356,-1.7378,-1.7415,-1.7562,-1.7577,0,0,0,-1.735,-1.7372,-1.7379,-1.7388,-1.7379,-1.7374,-1.7349,-1.7344,-1.7359,-1.7286,-1.7378,-1.739,-1.7411,-1.7429,-1.7442,-1.7459,-1.7307,-1.7306,-1.7306,-1.7492,-1.7463,-1.751,-1.7481,-1.749,-1.7465,-1.7471,-1.746,-1.7427,-1.745,-1.7456,-1.7548,-1.757,-1.7579,-1.7598,-1.7473,-1.7473,-1.7473,-1.7474,-1.7603,-1.763,-1.7586,-1.7616,-1.7586,-1.7611,-1.7589,-1.7566,-1.7586,-1.7541,-1.7558,-1.7513,-1.7596,-1.7611,-1.7478,-1.7477,-1.7477,-1.7476,-1.7476,-1.7695,-1.7702,-1.7695,-1.7707,-1.7719,-1.7687,-1.7709,-1.768,-1.7653,-1.767,-1.7674,-1.7673,-1.767,-1.7674,-1.7674,-1.7674,-1.7675,-1.7675,-1.7675,-1.7793,-1.7783,-1.7804,-1.7799,-1.7802,-1.7803,-1.7779,-1.7781,-1.7777,-1.7754,-1.7754,-1.7721,-1.7609,-1.7583,-1.768,-1.7679,-1.7678,-1.7678,-1.7678,-1.7919,-1.7886,-1.7919,-1.7922,-1.7915,-1.7931,-1.7893,-1.7901,-1.7899,-1.7912,-1.7875,-1.7796,-1.7778,-1.7768,-1.7746,-1.7879,-1.7879,-1.7879,-1.7879,-1.7997,-1.7985,-1.8013,-1.8021,-1.8024,-1.7994,-1.8035,-1.8018,-1.7994,-1.7992,-1.7968,-1.7936,-1.7927,-1.7914,-1.7901,-1.788,-1.8045,-1.8045,-1.8045,-1.8074,-1.8061,-1.8101,-1.8077,-1.807,-1.8065,-1.8103,-1.8114,-1.8081,-1.8051,-1.799,-1.7983,-1.793,-1.7915,-1.7885,-1.7865,-1.7826,0,0]},{"header":{"parameterUnit":"m.s-1","parameterCategory":1,"la1":30.2992,"la2":30.254,"lo1":-89.0895,"lo2":-89.0443,"dy":0.0025,"dx":0.0025,"nx":19,"ny":19,"refTime":"2026-05-10T09:00:00:Z","depth":0,"parameterNumber":3,"parameterNumberName":"V-component_of_WINDS"},"data":[0,0,0,1.4223,1.4224,1.4275,1.4275,1.4319,1.4319,0,0,0,0,0,0,0,0,0,0,0,1.4195,1.4195,1.4223,1.4224,1.4275,1.4276,1.4319,1.4319,0,0,0,0,0,0,0,0,0,0,0,1.4195,1.4195,1.4195,1.4224,1.4275,1.4276,1.4319,1.4288,0,0,0,0,0,0,0,0,0,0,1.4242,1.4204,1.4195,1.4195,1.4225,1.4275,1.4276,1.4287,1.429,1.4286,0,1.428,0,1.43,1.432,1.4321,0,0,0,1.4234,1.4201,1.4227,1.4195,1.4225,1.4275,1.4255,1.4289,1.4292,1.429,1.4281,1.4283,1.4301,1.4321,1.4321,1.427,1.4269,0,0,1.4231,1.4197,1.4224,1.4228,1.4219,1.4253,1.4256,1.4291,1.4279,1.4281,1.4285,1.4302,1.4321,1.4321,1.4271,1.427,0,0,0,1.4216,1.4195,1.422,1.4226,1.4237,1.4254,1.4258,1.4277,1.4288,1.4285,1.4302,1.4321,1.4321,1.4272,1.4271,1.4203,0,0,0,1.4215,1.4187,1.4218,1.4198,1.4236,1.4258,1.4243,1.4286,1.4291,1.4302,1.4321,1.4321,1.4272,1.4271,1.4207,1.4176,0,0,0,1.4196,1.4185,1.4188,1.4196,1.4217,1.4258,1.4271,1.4288,1.43,1.4321,1.4321,1.4273,1.4271,1.421,1.4181,1.4152,0,0,0,1.4166,1.4127,1.4186,1.4149,1.4217,1.4216,1.4271,1.4273,1.4282,1.4321,1.4272,1.4271,1.4211,1.4185,1.4155,1.412,1.4102,0,0,1.4098,1.4118,1.4099,1.4153,1.4133,1.4211,1.4183,1.4223,1.4255,1.4263,1.4263,1.4206,1.4182,1.4153,1.402,1.4006,0,0,0,1.4065,1.4051,1.4053,1.4061,1.4091,1.4114,1.4163,1.4178,1.4186,1.4253,1.4189,1.4176,1.416,1.4145,1.4133,1.4121,1.4263,1.4263,1.4263,1.3918,1.3963,1.3934,1.3984,1.3991,1.4042,1.4051,1.408,1.4123,1.4108,1.4109,1.4023,1.4004,1.3995,1.3982,1.4096,1.4096,1.4096,1.4096,1.382,1.3806,1.3865,1.3858,1.3905,1.39,1.3948,1.3978,1.3979,1.4026,1.4014,1.4059,1.3978,1.3969,1.4091,1.4092,1.4092,1.4093,1.4093,1.3727,1.3728,1.3748,1.3764,1.3771,1.3824,1.3823,1.3867,1.3908,1.3896,1.3902,1.3903,1.3909,1.3897,1.3896,1.3896,1.3896,1.3896,1.3895,1.3621,1.3646,1.364,1.3669,1.368,1.37,1.3752,1.3763,1.3787,1.3819,1.3819,1.3862,1.3963,1.3986,1.3891,1.3892,1.3892,1.3893,1.3893,1.3502,1.3536,1.3525,1.3536,1.3575,1.3578,1.3636,1.3656,1.3672,1.3669,1.3717,1.3785,1.3807,1.3817,1.3836,1.3708,1.3708,1.3708,1.3708,1.3421,1.3438,1.3437,1.3451,1.3471,1.3521,1.3507,1.3548,1.3594,1.3607,1.3633,1.3663,1.3671,1.3689,1.3702,1.372,1.3565,1.3565,1.3565,1.3349,1.337,1.3349,1.3396,1.343,1.3458,1.3446,1.346,1.352,1.356,1.3618,1.3624,1.3673,1.3687,1.3725,1.3744,1.3778,0,0]}]]